Regional Weather Roundup
Issued by NWS

Home | Current Version | Previous Version | Text Only | Print | Product List | Glossary On
Versions: 1 2 3 4 5 6 7 8 9 10 11 12 13 14 15 16 17 18 19 20 21 22 23 24 25 26 27 28 29 30 31 32 33 34 35 36 37 38 39 40 41 42 43 44 45 46 47 48 49 50
000
ASUS43 KMKX 172311
RWRWI

WISCONSIN REGIONAL WEATHER ROUNDUP
NATIONAL WEATHER SERVICE MILWAUKEE/SULLIVAN WI
500 PM CST WED DEC 17 2014

NOTE: "FAIR" INDICATES FEW OR NO CLOUDS BELOW 12,000 FEET WITH NO
SIGNIFICANT WEATHER AND/OR OBSTRUCTIONS TO VISIBILITY.

WIZ001-002-006>008-014>016-023>028-180000-
NORTHWEST WISCONSIN

CITY           SKY/WX    TMP DP  RH WIND       PRES   REMARKS
SUPERIOR ARPT  PTCLDY    17  12  80 W5        30.33R WCI  10
ASHLAND        CLOUDY    23  19  85 N7        30.30R WCI  15
HAYWARD        CLOUDY    18  11  74 CALM      30.28R HAZE
SIREN          MOCLDY    16  10  75 CALM      30.32R
CUMBERLAND     CLEAR     16   9  73 N6        30.27S WCI   7
RICE LAKE      CLEAR     18  10  73 NW5       30.30R WCI  11
CHETEK         CLEAR     17  10  75 CALM      30.29R
LADYSMITH      CLOUDY    20  13  75 NW7       30.27S WCI  11
EAU CLAIRE     PTCLDY    16   9  74 W3        30.29R
MENOMONIE      MOCLDY    19  10  70 NW6       30.30R WCI  10
NEW RICHMOND   PTCLDY    15  10  82 N5        30.31R WCI   7
OSCEOLA        MOCLDY    17  10  73 CALM      30.34R
$$

WIZ003>005-009-010-017-018-180000-
NORTH CENTRAL WISCONSIN

CITY           SKY/WX    TMP DP  RH WIND       PRES   REMARKS
MANITOWISH WTR CLOUDY    21  19  94 N6        30.20R WCI  13
ARBOR VITAE    CLOUDY    22  19  89 NW6       30.19R WCI  14
WOODRUFF       CLOUDY    22  19  89 NW6       30.19R WCI  14
RHINELANDER    CLOUDY    20  16  84 NW8       30.18R WCI  10
EAGLE RIVER    CLOUDY    22  17  83 N10       30.17R WCI  11
LAND O LAKES   CLOUDY    22  19  87 N9        30.18R WCI  11
PHILLIPS       FLURRIES  18  14  84 NW3       30.22R
TOMAHAWK       CLOUDY    20  15  82 NW6       30.21R WCI  12
MEDFORD        CLOUDY    18  12  76 NW7       30.21S WCI   9
MERRILL        CLOUDY    22  15  75 NW7       30.21R WCI  13
$$

WIZ029-030-035-036-043>047-180000-
CENTRAL WISCONSIN

CITY           SKY/WX    TMP DP  RH WIND       PRES   REMARKS
WAUSAU         CLOUDY    22  13  68 NW9       30.20R WCI  12
MOSINEE        CLOUDY    19  16  86 W10       30.22R WCI   8
MARSHFIELD     PTCLDY    17  11  77 NW9       30.23R WCI   6
STEVENS POINT  PTCLDY    18  10  73 NW5       30.23S WCI  11
WAUPACA        PTCLDY    24  14  65 NW8       30.23S WCI  15
WAUTOMA        CLEAR     21  13  71 NW9       30.25R WCI  11
WISC RAPIDS    PTCLDY    18  10  71 W9        30.26R WCI   7
CAMP DOUGLAS   CLOUDY    19  16  86 NW7       30.26R WCI  10
$$

WIZ011>013-019>022-031-037>040-048>050-180000-
NORTHEAST WISCONSIN

CITY           SKY/WX    TMP DP  RH WIND       PRES   REMARKS
ANTIGO         CLOUDY    21  17  83 NW10      30.17S WCI  10
SHAWANO        CLOUDY    28  17  65 W7        30.21R WCI  20
OCONTO         CLOUDY    27  19  71 W8        30.18R WCI  18
STURGEON BAY   CLOUDY    27  18  69 W13       30.16R WCI  16
GREEN BAY      CLOUDY    26  16  65 W10       30.21R WCI  16
MANITOWOC      CLOUDY    26  18  71 NW16      30.19R WCI  14
APPLETON       MOCLDY    23  12  63 W13       30.21R WCI  11
CLINTONVILLE   CLOUDY    27  14  59 NW12      30.21R WCI  16
OSHKOSH        PTCLDY    22  14  71 NW10      30.21R WCI  11
$$

WIZ032>034-041-042-053>061-180000-
SOUTHWEST WISCONSIN

CITY           SKY/WX    TMP DP  RH WIND       PRES   REMARKS
LA CROSSE      CLOUDY    21  12  68 N9        30.30R WCI  11
SPARTA         CLOUDY    19  12  74 NW7       30.29R WCI  10
VIROQUA        MOCLDY    19  14  82 NW5       30.24R WCI  12
BOSCOBEL       CLEAR     22  13  68 NW3       30.28R
PRAIRIE DU CHI CLEAR     23  15  71 W6        30.29R WCI  15
PLATTEVILLE    CLEAR     21  16  79 CALM      30.26S
$$

WIZ056-057-062-063-064-067-068-180000-
SOUTH CENTRAL WISCONSIN

CITY           SKY/WX    TMP DP  RH WIND       PRES   REMARKS
REEDSBURG      CLOUDY    21  14  75 NW7       30.25R WCI  12
BARABOO/DELLS  MOCLDY    20  14  75 NW7       30.24R WCI  12
LONE ROCK      PTCLDY    25  13  60 W7        30.27R WCI  17
MINERAL POINT  CLEAR     21  16  79 CALM      30.24R
MADISON        PTCLDY    21  14  74 NW3       30.24R
MIDDLETON      PTCLDY    23  16  75 NW5       30.24R WCI  17
WATERTOWN      MOCLDY    21  15  77 NW8       30.23R WCI  11
MONROE         CLOUDY    23  18  80 NW6       30.24R WCI  16
JANESVILLE     CLOUDY    25  18  74 NW6       30.25R WCI  18
$$

WIZ051-052-058>065-066-070>072-180000-
SOUTHEAST WISCONSIN

CITY           SKY/WX    TMP DP  RH WIND       PRES   REMARKS
MILWAUKEE      MOCLDY    25  14  63 NW15      30.22R WCI  13
WAUKESHA       MOCLDY    21  14  73 NW9       30.22R WCI  11
MILWAUKEE/TIMM CLOUDY    25  16  68 NW12      30.23R WCI  14
RACINE         PTCLDY    25  14  63 NW14      30.24R WCI  13
BURLINGTON     PTCLDY    22  16  75 NW10      30.22S WCI  12
KENOSHA        MOCLDY    25  16  68 NW9       30.22R WCI  15
FOND DU LAC    PTCLDY    22  13  68 NW10      30.22R WCI  11
SHEBOYGAN      CLEAR     23  14  68 W10       30.20R WCI  12
WEST BEND      MOCLDY    23  16  74 W12       30.21R WCI  12
JUNEAU         MOCLDY    21  14  76 NW8       30.23S WCI  11
$$

LSZ147-162-180000-
LAKE SUPERIOR

STATION/POSITION TIME  TEMP    WIND        PRES    WAVE
                       AIR SEA DIR/SP/G            HT/PER
                 (UTC) (F)     (DEG/KT/KT) (MB)    (FT/S)
DEVILS ISLAND    2300   26      20/  6/  8 1027.3R
PORT WING        2200   24     300/  7/  8 1026.1R
SAXON HARBOR     2200   26      20/ 10/ 13 1025.1R
$$

LMZ867-665-643>646-180000-
LAKE MICHIGAN

STATION/POSITION TIME  TEMP    WIND        PRES    WAVE
                       AIR SEA DIR/SP/G            HT/PER
                 (UTC) (F)     (DEG/KT/KT) (MB)    (FT/S)
CHAMBERS ISLAND  2200   29     300/  9/ 14 1020.7R
NORTHPORT PIER   2217   30     320/ 18/ 25 1019.6R
SISTER BAY       2213          360/ 21/ 24   N/A
ALGOMA LAKESHORE 2214          330/  9/ 16   N/A
KEWAUNEE LAKESHO 2200   26     300/ 12/ 15 1020.4R
SHEBOYGAN LAKESH 2300   24 35  290/ 14/ 17 1023.8R
PORT WASHINGTON  2240   25     290/  8/ 13 1023.7R
MILWAUKEE LAKESH 2200   26     300/ 12/ 18   N/A
KENOSHA   LAKESH 2300   26     310/ 10/ 13 1023.7R
$$

TC  - TEMPERATURE IN CELSIUS
VSB - VISIBILITY IN STATUTE MILES
WCI - WIND CHILL INDEX
HX  - HEAT INDEX



USA.gov is the U.S. government's official web portal to all federal, state and local government web resources and services.